DW7447 Weather Reports


time (UTC)temp
F
wind
direction
speed
knots
gust
knots
rain 1hr
in
rain 24hr
in
rain mn
in
humidity
%
barometer
mb
20260902113008 64 173 7.0 16.5 0.00 0.02 0.02 77 1015.1
20260902112504 64 206 4.3 12.2 0.00 0.02 0.02 77 1015.2
20260902112006 64 173 6.1 13.9 0.00 0.02 0.02 77 1015.3
20260902110958 64 235 6.1 12.2 0.00 0.02 0.02 74 1015.4
20260902110500 65 213 6.1 15.6 0.00 0.02 0.02 74 1015.4
20260902105951 65 252 10.4 15.6 0.00 0.02 0.02 74 1015.4
20260902105439 65 210 7.8 13.0 0.00 0.02 0.02 76 1015.4
20260902104935 65 245 7.8 15.6 0.00 0.02 0.02 76 1015.3
20260902104434 65 264 8.7 15.6 0.00 0.02 0.02 78 1015.2
20260902103932 65 200 6.1 13.9 0.00 0.02 0.02 78 1015.1
20260902102925 65 213 8.7 13.9 0.00 0.02 0.02 78 1015.2
20260902102416 64 212 9.6 13.9 0.00 0.02 0.02 79 1015.2
20260902101404 64 209 9.6 13.9 0.00 0.02 0.02 81 1015.3
20260902100905 62 203 6.1 13.0 0.00 0.02 0.02 84 1015.3
20260902100405 62 182 6.1 13.0 0.00 0.02 0.02 84 1015.3
20260902095351 61 209 4.3 11.3 0.00 0.02 0.02 86 1015.4
20260902094851 61 231 5.2 13.0 0.00 0.02 0.02 86 1015.4
20260902093333 61 183 7.0 13.0 0.00 0.02 0.02 87 1015.4
20260902092335 60 223 6.1 11.3 0.00 0.02 0.02 87 1015.6
20260902090336 60 243 4.3 12.2 0.00 0.02 0.02 87 1015.7
20260902085335 60 234 7.8 13.9 0.00 0.02 0.02 87 1015.5
20260902084833 60 233 4.3 9.6 0.00 0.02 0.02 87 1015.6
20260902083841 61 214 5.2 10.4 0.00 0.02 0.02 87 1015.3
20260902083335 61 196 4.3 10.4 0.00 0.02 0.02 87 1015.2
20260902082334 61 209 0.9 10.4 0.00 0.02 0.02 87 1015.3
20260902081834 60 231 6.1 12.2 0.00 0.02 0.02 87 1015.5
20260902081333 60 243 6.1 12.2 0.00 0.02 0.02 88 1015.5
20260902080332 60 243 3.5 11.3 0.00 0.02 0.02 89 1015.4
20260902075833 60 230 3.5 14.8 0.00 0.02 0.02 88 1015.4
20260902075335 59 183 7.0 14.8 0.00 0.02 0.02 88 1015.3
20260902074833 59 219 8.7 14.8 0.00 0.02 0.02 90 1015.3
20260902074335 59 235 6.1 13.0 0.00 0.02 0.02 90 1015.2
20260902073834 58 217 5.2 10.4 0.00 0.02 0.02 90 1015.3
20260902073333 58 206 5.2 7.8 0.00 0.02 0.02 90 1015.3
20260902072834 58 220 3.5 7.0 0.00 0.02 0.02 90 1015.3
20260902072334 58 210 3.5 7.8 0.00 0.02 0.02 91 1015.3
20260902071834 58 221 5.2 11.3 0.00 0.02 0.02 91 1015.4
20260902071338 58 206 7.0 12.2 0.00 0.02 0.02 91 1015.3
20260902065335 58 209 6.1 10.4 0.00 0.02 0.02 92 1015.2
20260902064333 58 233 5.2 11.3 0.00 0.02 0.02 92 1015.3
20260902063833 57 221 5.2 11.3 0.00 0.02 0.02 92 1015.3
20260902062836 57 210 5.2 11.3 0.00 0.02 0.02 93 1015.2
20260902062334 57 207 7.0 11.3 0.00 0.02 0.02 93 1015.2
20260902061835 57 213 6.1 12.2 0.00 0.02 0.02 93 1015.2
20260902061335 57 227 5.2 12.2 0.00 0.02 0.02 93 1015.3
20260902060835 57 219 5.2 14.8 0.00 0.02 0.02 93 1015.2
20260902060335 57 237 7.8 14.8 0.00 0.02 0.02 93 1015.1
20260902055835 57 197 5.2 11.3 0.00 0.02 0.02 93 1015.1
20260902055338 57 241 6.1 11.3 0.00 0.02 0.02 93 1015.0
20260902054840 57 178 4.3 12.2 0.00 0.02 0.02 92 1015.1
20260902054336 57 214 7.8 12.2 0.00 0.02 0.02 92 1015.1
20260902053833 57 195 6.1 12.2 0.00 0.02 0.02 91 1015.0
20260902053334 57 248 7.0 12.2 0.00 0.02 0.02 91 1015.0
20260902052833 57 197 5.2 12.2 0.00 0.02 0.02 91 1015.0
20260902051833 57 234 5.2 12.2 0.00 0.02 0.02 91 1015.0
20260902051333 57 204 7.0 10.4 0.00 0.02 0.02 91 1015.0
20260902050833 57 265 4.3 9.6 0.00 0.02 0.02 91 1015.0
20260902045834 57 206 4.3 10.4 0.00 0.02 0.02 91 1015.0
20260902045334 57 207 3.5 9.6 0.00 0.02 0.02 91 1015.0
20260902044834 57 189 4.3 10.4 0.00 0.02 0.02 91 1015.0
20260902044333 57 230 5.2 10.4 0.00 0.02 0.02 91 1015.1
20260902043334 57 248 5.2 11.3 0.00 0.02 0.02 91 1015.0
20260902042333 57 216 5.2 11.3 0.00 0.02 0.02 91 1015.1
20260902041835 57 221 4.3 11.3 0.00 0.02 0.02 91 1015.0
20260902041333 57 212 4.3 11.3 0.00 0.02 0.02 92 1015.1
20260902040837 57 252 4.3 10.4 0.00 0.02 0.02 92 1015.0
20260902040334 57 209 4.3 10.4 0.00 0.02 0.02 92 1015.0
20260902035835 57 202 5.2 10.4 0.00 0.02 0.02 92 1015.1
20260902035335 57 192 4.3 9.6 0.00 0.02 0.02 92 1015.1
20260902034334 57 230 4.3 7.0 0.00 0.02 0.02 92 1015.2
20260902033834 57 248 3.5 7.0 0.00 0.02 0.02 92 1015.1
20260902033333 57 221 2.6 9.6 0.00 0.02 0.02 92 1015.2
20260902032339 57 213 4.3 7.8 0.00 0.02 0.02 91 1015.3
20260902031837 57 251 3.5 12.2 0.00 0.02 0.02 92 1015.2
20260902031333 57 221 6.1 12.2 0.00 0.02 0.02 92 1015.2
20260902030334 57 231 6.1 10.4 0.00 0.02 0.02 92 1015.2
20260902025831 57 221 5.2 9.6 0.00 0.02 0.02 92 1015.2
20260902025315 57 186 4.3 7.8 0.00 0.02 0.02 92 1015.3
20260902024805 57 240 3.5 9.6 0.00 0.02 0.02 92 1015.4
20260902024305 57 240 4.3 10.4 0.00 0.02 0.02 92 1015.3
20260902023802 57 255 5.2 10.4 0.00 0.02 0.02 92 1015.3
20260902023303 57 210 4.3 9.6 0.00 0.02 0.02 92 1015.4
20260902022804 57 223 3.5 6.1 0.00 0.02 0.02 92 1015.4
20260902022306 57 200 1.7 6.1 0.00 0.02 0.02 92 1015.4
20260902021804 57 189 2.6 13.0 0.00 0.02 0.02 92 1015.4
20260902021303 57 207 3.5 13.0 0.00 0.02 0.02 92 1015.4
20260902020254 57 189 4.3 9.6 0.00 0.02 0.02 92 1015.5
20260902015739 57 220 3.5 7.0 0.00 0.02 0.02 92 1015.6
20260902015233 57 227 4.3 7.0 0.00 0.02 0.02 92 1015.5
20260902014734 57 179 4.3 7.8 0.00 0.02 0.02 92 1015.5
20260902013733 57 196 5.2 11.3 0.00 0.02 0.02 92 1015.4
20260902012734 57 244 8.7 12.2 0.01 0.02 0.02 92 1015.5
20260902012233 57 223 4.3 9.6 0.01 0.02 0.02 92 1015.5
20260902011233 57 214 5.2 12.2 0.01 0.02 0.02 92 1015.6
20260902010734 57 207 7.0 12.2 0.01 0.02 0.02 92 1015.4
20260902005734 57 196 5.2 10.4 0.01 0.02 0.02 92 1015.5
20260902005233 57 199 5.2 10.4 0.01 0.02 0.02 92 1015.6
20260902004734 57 207 6.1 12.2 0.01 0.02 0.02 92 1015.5
20260902003733 57 212 5.2 9.6 0.02 0.02 0.02 92 1015.5
20260902003233 57 204 5.2 9.6 0.02 0.02 0.01 92 1015.5
20260902002736 57 219 6.1 7.8 0.01 0.01 0.01 92 1015.6
20260902002232 57 207 3.5 7.0 0.01 0.01 0.01 91 1015.6
20260902001732 57 196 3.5 7.0 0.01 0.01 0.01 91 1015.6
20260902001239 57 219 3.5 9.6 0.01 0.01 0.01 91 1015.7
20260902000733 57 238 4.3 10.4 0.01 0.01 0.01 91 1015.7
20260902000233 57 212 4.3 10.4 0.01 0.01 0.01 91 1015.6
20260901235232 58 200 6.1 11.3 0.01 0.01 0.01 91 1015.7
20260901234733 58 195 5.2 11.3 0.01 0.01 0.01 91 1015.6
20260901234233 58 227 7.0 11.3 0.00 0.00 0.00 91 1015.6
20260901233233 58 178 3.5 10.4 0.00 0.00 0.00 90 1015.7
20260901232733 58 179 7.0 10.4 0.00 0.00 0.00 90 1015.8
20260901232234 58 228 6.1 9.6 0.00 0.00 0.00 90 1015.8
20260901231734 58 196 6.1 12.2 0.00 0.00 0.00 89 1015.7
20260901231233 58 192 6.1 12.2 0.00 0.00 0.00 89 1015.8
20260901230245 58 228 4.3 10.4 0.00 0.00 0.00 88 1015.8
20260901225734 58 204 4.3 10.4 0.00 0.00 0.00 88 1015.8
20260901225234 58 185 5.2 13.0 0.00 0.00 0.00 87 1015.8
20260901224735 59 188 7.0 13.0 0.00 0.00 0.00 87 1015.8
20260901224232 59 183 7.0 11.3 0.00 0.00 0.00 87 1015.9
20260901223732 59 206 6.1 15.6 0.00 0.00 0.00 87 1015.9
20260901223233 59 214 9.6 15.6 0.00 0.00 0.00 86 1015.8
20260901222734 59 240 6.1 14.8 0.00 0.00 0.00 85 1015.8
20260901220235 59 197 3.5 13.0 0.00 0.00 0.00 85 1015.8
20260901215725 59 197 4.3 13.0 0.00 0.00 0.00 85 1015.9
20260901214705 59 185 6.1 15.6 0.00 0.00 0.00 84 1015.9
20260901214154 59 221 7.8 15.6 0.00 0.00 0.00 84 1015.9
20260901213636 59 257 7.8 14.8 0.00 0.00 0.00 84 1015.8
20260901212134 59 244 10.4 17.4 0.00 0.00 0.00 83 1015.9
20260901211633 59 196 9.6 17.4 0.00 0.00 0.00 83 1015.9
20260901211134 59 216 7.8 14.8 0.00 0.00 0.00 83 1016.0
20260901210635 59 204 7.8 14.8 0.00 0.00 0.00 83 1016.0
20260901210135 59 238 10.4 14.8 0.00 0.00 0.00 83 1016.0
20260901205633 59 217 9.6 13.9 0.00 0.00 0.00 83 1016.0
20260901205135 59 210 7.0 13.9 0.00 0.00 0.00 83 1015.9
20260901204633 59 224 7.8 13.9 0.00 0.00 0.00 83 1015.8
20260901204133 59 212 7.0 13.9 0.00 0.00 0.00 83 1015.8
20260901203633 59 204 5.2 13.0 0.00 0.00 0.00 83 1015.9
20260901203136 59 226 5.2 13.0 0.00 0.00 0.00 83 1016.0
20260901202638 59 216 7.0 13.0 0.00 0.00 0.00 83 1015.9
20260901202141 59 186 5.2 12.2 0.00 0.00 0.00 83 1016.0
20260901201133 59 216 4.3 10.4 0.00 0.00 0.00 82 1016.1
20260901200634 60 199 6.1 12.2 0.00 0.00 0.00 82 1016.2
20260901200134 60 228 7.0 12.2 0.00 0.00 0.00 82 1016.1
20260901195634 60 206 7.0 13.0 0.00 0.00 0.00 81 1016.1
20260901195133 60 223 6.1 13.0 0.00 0.00 0.00 81 1016.1
20260901194134 60 183 7.0 13.9 0.00 0.00 0.00 80 1016.0
20260901193633 60 186 8.7 13.9 0.00 0.00 0.00 80 1016.0
20260901192638 60 241 6.1 10.4 0.00 0.00 0.00 80 1015.9
20260901192134 60 182 2.6 11.3 0.00 0.00 0.00 80 1016.0
20260901191633 60 250 5.2 13.0 0.00 0.00 0.00 79 1015.9
20260901191133 60 212 6.1 13.0 0.00 0.00 0.00 79 1015.9
20260901190634 60 240 6.1 12.2 0.00 0.00 0.00 79 1015.9
20260901190134 60 217 7.8 12.2 0.00 0.00 0.00 79 1015.8
20260901185633 60 223 4.3 12.2 0.00 0.00 0.00 79 1015.8
20260901184633 60 203 6.1 13.9 0.00 0.00 0.00 78 1015.6
20260901184134 60 224 6.1 13.9 0.00 0.00 0.00 78 1015.5
20260901183632 60 210 4.3 10.4 0.00 0.00 0.00 78 1015.6
20260901183135 60 196 7.0 11.3 0.00 0.00 0.00 78 1015.6
20260901182634 60 238 7.0 14.8 0.00 0.00 0.00 77 1015.7
20260901182138 60 259 7.8 14.8 0.00 0.00 0.00 77 1015.6
20260901181638 60 281 7.8 14.8 0.00 0.00 0.00 77 1015.7
20260901180634 61 240 6.1 13.9 0.00 0.00 0.00 77 1015.7
20260901180134 61 276 6.1 13.9 0.00 0.00 0.00 76 1015.7
20260901175135 61 237 4.3 12.2 0.00 0.00 0.00 75 1015.8
20260901174634 61 265 6.1 14.8 0.00 0.00 0.00 75 1015.6
20260901174136 61 252 6.1 14.8 0.00 0.00 0.00 75 1015.5
20260901173136 61 223 7.8 20.0 0.00 0.00 0.00 74 1015.6
20260901172638 61 212 8.7 17.4 0.00 0.00 0.00 74 1015.6
20260901172134 61 180 12.2 17.4 0.00 0.00 0.00 74 1015.5
20260901171635 61 206 9.6 18.2 0.00 0.00 0.00 73 1015.5
20260901171133 62 217 10.4 18.2 0.00 0.00 0.00 73 1015.5
20260901170634 62 195 4.3 17.4 0.00 0.00 0.00 73 1015.5
20260901170134 62 203 9.6 17.4 0.00 0.00 0.00 73 1015.5
20260901165635 62 230 4.3 20.0 0.00 0.00 0.00 73 1015.5
20260901165137 62 230 13.0 20.0 0.00 0.00 0.00 73 1015.5
20260901164635 62 217 8.7 15.6 0.00 0.00 0.00 74 1015.6
20260901163135 62 220 7.0 17.4 0.00 0.00 0.00 73 1015.5
20260901162633 62 214 7.8 15.6 0.00 0.00 0.00 73 1015.5
20260901162135 62 176 9.6 15.6 0.00 0.00 0.00 73 1015.3
20260901161636 62 202 8.7 15.6 0.00 0.00 0.00 73 1015.6
20260901160118 63 243 10.4 22.6 0.00 0.00 0.00 72 1015.3
20260901155616 63 247 11.3 22.6 0.00 0.00 0.00 72 1015.6
20260901155104 63 224 8.7 17.4 0.00 0.00 0.00 72 1015.6
20260901154604 63 235 10.4 17.4 0.00 0.00 0.00 71 1015.6
20260901154056 63 213 8.7 18.2 0.00 0.00 0.00 71 1015.6
20260901153535 63 195 13.9 22.6 0.00 0.02 0.00 71 1015.7
20260901153030 63 209 14.8 22.6 0.00 0.02 0.00 71 1015.5
20260901152535 63 200 9.6 20.0 0.00 0.02 0.00 71 1015.6
20260901152034 63 227 13.9 20.0 0.00 0.02 0.00 71 1015.5
20260901151533 63 207 7.8 16.5 0.00 0.02 0.00 72 1015.6
20260901151014 63 206 6.1 13.9 0.00 0.02 0.00 72 1015.6
20260901150510 63 200 3.5 18.2 0.00 0.02 0.00 72 1015.6
20260901150004 64 223 7.8 18.2 0.00 0.02 0.00 71 1015.5
20260901145002 64 228 14.8 22.6 0.00 0.02 0.00 71 1015.4
20260901144505 64 220 7.0 15.6 0.00 0.02 0.00 71 1015.5
20260901143955 64 220 8.7 19.1 0.00 0.02 0.00 72 1015.2
20260901143435 64 206 9.6 21.7 0.00 0.02 0.00 72 1015.2
20260901142922 64 217 13.9 21.7 0.00 0.02 0.00 71 1015.3
20260901142407 64 228 9.6 19.1 0.00 0.02 0.00 72 1015.2
20260901141904 64 240 11.3 19.1 0.00 0.02 0.00 71 1015.2
20260901140905 64 238 13.0 25.2 0.00 0.02 0.00 71 1015.2
20260901140404 64 219 9.6 18.2 0.00 0.02 0.00 73 1015.4
20260901135908 64 230 9.6 20.9 0.00 0.02 0.00 73 1015.3
20260901135406 64 227 9.6 20.9 0.00 0.02 0.00 72 1015.2
20260901134332 64 224 13.0 19.1 0.00 0.02 0.00 72 1015.4
20260901132832 64 228 13.0 19.1 0.00 0.02 0.00 70 1015.5
20260901131800 65 228 10.4 22.6 0.00 0.02 0.00 69 1015.2
20260901131250 65 207 12.2 22.6 0.00 0.02 0.00 69 1015.2
20260901130733 65 235 13.9 24.3 0.00 0.02 0.00 71 1015.3
20260901130233 64 262 13.9 24.3 0.00 0.02 0.00 71 1015.2
20260901125721 65 196 7.8 18.2 0.00 0.02 0.00 71 1015.3
20260901124708 65 237 7.8 17.4 0.00 0.02 0.00 71 1015.6
20260901124205 64 230 6.1 20.0 0.00 0.02 0.00 71 1015.6
20260901123638 64 245 9.6 20.0 0.00 0.02 0.00 71 1015.7
20260901123134 64 282 9.6 15.6 0.00 0.02 0.00 71 1015.7
20260901122635 64 207 7.8 15.6 0.00 0.02 0.00 73 1015.7
20260901121607 63 251 13.9 20.0 0.00 0.02 0.00 73 1015.8
20260901121106 63 182 5.2 15.6 0.00 0.02 0.00 73 1015.6
20260901120104 63 186 8.7 14.8 0.00 0.02 0.00 73 1015.7
20260901115031 63 197 9.6 20.9 0.00 0.02 0.00 74 1015.7
20260901114532 63 237 7.8 20.9 0.00 0.02 0.00 73 1015.6
20260901114035 63 248 11.3 17.4 0.00 0.02 0.00 73 1015.6
20260901113532 63 255 7.0 19.1 0.00 0.02 0.00 73 1015.6